Location: *
(44.5667°S, 172.6833°W)
Time: 09:48:05
(UTC+00:00)

Daily predictions for brighter satellites

Satellite Brightness Start Highest point End
(mag) Time Altitude Azimuth Time Altitude Azimuth Time Altitude Azimuth
SAR-Lupe-1 4.3 12:06:15 67° SE 12:06:15 67° SE 12:09:47 10° S
Cosmos 2208 Rocket 4.0 12:01:40 10° SSW 12:07:03 76° WNW 12:08:09 57° N
MSX 4.3 12:04:43 30° NE 12:07:27 58° ESE 12:13:08 10° S
Cosmos 1934 Rocket 4.3 12:02:50 10° S 12:09:13 63° ESE 12:12:05 33° NNE
Cosmos 1953 4.0 12:11:34 23° ENE 12:12:10 23° E 12:15:23 10° SE
Meteor 2-5 Rocket 3.7 12:07:01 10° SSW 12:12:48 72° W 12:14:10 51° NNW
Cosmos 1503 Rocket 4.4 12:12:02 43° NE 12:13:03 49° ENE 12:18:05 10° SSE
Cosmos 1674 Rocket 3.4 12:09:45 10° S 12:14:17 84° W 12:14:39 74° NNW
ADEOS II 2.9 12:12:08 25° NE 12:14:53 46° ESE 12:19:57 10° S
Cosmos 1697 Rocket 3.0 12:12:23 10° SW 12:17:49 46° WNW 12:18:30 44° NW
Spot 4 4.4 12:13:13 10° S 12:17:56 48° WSW 12:18:58 41° WNW
Cosmos 1908 4.2 12:20:56 36° WSW 12:20:56 36° WSW 12:24:19 10° S
Cosmos 1703 3.1 12:20:24 10° S 12:24:12 83° WSW 12:24:12 83° WSW
Cosmos 1315 Rocket 4.2 12:21:10 10° S 12:24:52 33° ESE 12:26:17 26° ENE
USA 81 4.4 12:25:49 44° WNW 12:27:01 53° W 12:32:15 10° S
Resurs 1-4 Rocket 2.0 12:26:23 48° N 12:27:58 85° WNW 12:33:20 10° SSW
IDEFIX/ARIANE 42P 2.5 12:26:51 47° N 12:28:26 87° WNW 12:33:47 10° SSW
ARGOS Delta rocket 4.0 12:25:21 10° S 12:29:50 51° WSW 12:30:32 46° WNW
Cosmos 773 Rocket 4.1 12:29:01 10° SSW 12:34:24 75° ESE 12:36:50 33° NNE
ATLAS 3B R/B 2.5 12:30:16 10° SW 12:36:38 78° SE 12:42:45 11° NE
Cosmos 1892 4.0 12:34:05 10° S 12:37:27 33° ESE 12:38:32 27° ENE
SL-16 R/B 3.6 12:34:21 10° SSW 12:39:39 36° SE 12:44:52 10° ENE
AQUA 4.1 12:38:35 34° NE 12:40:35 66° ESE 12:45:22 10° S
CZ-2D R/B 2.2 12:39:10 44° N 12:40:53 70° WNW 12:46:28 10° SSW
COSMOS 2406 3.2 12:41:45 42° NW 12:43:46 76° WSW 12:49:35 10° SSE
Lacrosse 5 rocket 2.6 12:41:06 10° SW 12:44:31 37° SSE 12:48:00 10° ENE
Cosmos 1825 3.6 12:42:46 10° SSE 12:46:01 30° ESE 12:47:25 23° ENE
Cosmos 1975 Rocket 3.9 12:42:17 10° S 12:46:32 46° ESE 12:48:35 27° NE
Cosmos 1980 Rocket 2.3 12:41:33 10° SSW 12:47:08 56° WNW 12:48:42 42° NNW
ATLAS CENTAUR R/B 2.5 12:44:27 10° SSW 12:48:49 48° SE 12:53:03 10° NE
Cosmos 1340 3.0 12:49:31 48° WSW 12:49:31 48° WSW 12:53:01 10° S
Cosmos 2369 3.7 12:43:57 10° SSW 12:49:36 63° WNW 12:51:33 40° N
Cosmos 1908 Rocket 3.8 12:52:20 47° WNW 12:53:11 56° WSW 12:57:39 10° S
Cosmos 44 Rocket 3.2 12:53:58 49° N 12:55:06 70° ENE 12:59:45 10° SE
USA 306 2.3 12:57:19 73° ENE 12:57:19 73° ENE 13:00:47 10° ESE
Cosmos 1300 3.1 12:57:13 44° W 12:57:23 44° WSW 13:01:00 10° S
Cosmos 1455 3.3 12:58:47 29° NE 12:59:50 35° E 13:03:15 10° SSE
COSMOS 2441 4.3 13:00:41 40° N 13:02:28 75° WNW 13:07:24 10° SSW
Cosmos 1408 3.7 13:02:17 10° SSW 13:04:36 28° WSW 13:04:36 28° WSW
FENGYUN 3A 3.7 13:02:08 25° NNE 13:05:24 81° ESE 13:10:54 10° SSW
Meteor 2-10 Rocket 4.1 13:03:32 34° NW 13:05:44 52° WSW 13:11:29 10° S
Cosmos 158 Rocket 4.3 13:02:33 10° SW 13:07:09 40° WNW 13:07:54 37° NW
ATLAS 2AS CENTAUR R/B 3.7 13:02:09 15° WNW 13:07:16 39° SW 13:13:46 10° SSE
DNEPR-1 R/B 3.9 13:14:28 37° N 13:15:52 54° ENE 13:19:57 10° SE
ISS -3.7 13:17:10 59° NNE 13:17:20 60° NE 13:20:44 10° ESE
Cosmos 1633 3.2 13:16:03 10° SSW 13:18:24 33° WSW 13:18:24 33° WSW
CSL-04 DEB 4.4 13:19:29 38° N 13:21:02 71° WNW 13:25:22 10° SSW
Cosmos 2278 3.6 13:19:57 10° SSW 13:25:40 74° WNW 13:30:16 16° NNE
Cosmos 2082 Rocket 3.2 13:22:45 21° WNW 13:25:52 36° SW 13:31:11 10° SSE
Helios 1A Rocket 4.2 13:25:03 10° S 13:28:27 27° WSW 13:29:33 23° W
Cosmos 1538 Rocket 4.4 13:23:40 10° SSW 13:29:06 66° ESE 13:34:28 10° NNE
Cosmos 1300 Rocket 3.7 13:27:30 36° NW 13:29:09 60° W 13:33:38 10° S
Cosmos 2098 Rocket 4.3 13:30:36 15° WSW 13:30:36 15° WSW 13:32:27 10° SSW
CZ-2C R/B 3.7 13:27:14 10° NE 13:32:07 43° ESE 13:36:58 10° S
CZ-2C R/B 3.2 13:28:17 17° NNE 13:32:39 89° WNW 13:38:32 10° SSW
USA 229 DEB 4.0 13:27:50 10° SSW 13:34:33 63° SE 13:40:39 10° NE
USA 229 4.1 13:27:54 10° SSW 13:34:36 62° SE 13:40:43 10° NE
Cosmos 2237 4.2 13:29:24 10° SSW 13:35:13 90° WNW 13:40:58 10° NNE
USA 308 4.3 13:33:48 11° SW 13:35:13 15° SSW 13:36:56 10° SSE
Tiangong 0.0 13:38:14 15° NE 13:38:14 15° NE 13:39:42 10° ENE
Cosmos 1025 Rocket 4.0 13:35:03 10° SSW 13:38:58 31° W 13:40:04 27° WNW
ALOS 2.2 13:36:56 22° N 13:39:57 76° WNW 13:44:42 10° SSW
Cosmos 1867 4.3 13:39:31 10° SW 13:44:16 32° WNW 13:46:02 26° NNW
Cosmos 2360 Rocket 3.0 13:39:14 10° SSW 13:44:50 54° ESE 13:50:24 10° NE
NOSS 3-1 (A) 3.3 13:40:38 10° SW 13:46:44 51° WNW 13:51:46 10° NNE
Cosmos 1727 Rocket 4.0 13:42:51 23° NNW 13:46:57 75° W 13:53:18 10° S
NOSS 3-1 (C) 4.2 13:42:16 10° WSW 13:47:02 25° WNW 13:48:03 23° NW
Genesis I 4.0 13:44:01 10° SW 13:47:08 29° WNW 13:47:08 29° WNW
Cosmos 1953 3.6 13:46:52 23° WNW 13:48:04 26° WSW 13:51:29 10° SSW
CZ-4 R/B 3.9 13:46:43 24° N 13:49:24 54° W 13:54:03 10° SSW
In-Cosmos 22 Rocket 4.3 13:43:35 10° SSW 13:49:31 87° W 13:55:08 11° N
Cosmos 2219 Rocket 4.1 13:46:09 10° S 13:51:12 32° SE 13:56:13 10° ENE
Thor Agena Rocket 3.5 13:47:55 17° N 13:51:55 68° WNW 13:57:08 10° SSW
Meteor 1-11 4.3 13:46:13 10° SSW 13:52:08 86° W 13:57:53 10° N
Sich 1 Rocket 3.8 13:50:48 19° N 13:54:00 77° E 13:58:40 10° SSE
ADEOS II 3.3 13:53:01 21° WNW 13:54:43 25° W 13:59:03 10° SW
USA 281 3.6 13:51:16 10° NE 13:57:47 70° ESE 14:04:23 10° SSW
Cosmos 304 Rocket 3.9 13:55:33 24° NW 13:58:23 66° WSW 14:03:15 10° SSE
Cosmos 332 Rocket 4.1 13:55:13 19° N 13:58:39 66° ENE 14:03:30 10° SSE
USA 305 2.1 13:58:56 34° SW 13:59:12 36° SSW 14:01:05 10° SE
Cosmos 1315 Rocket 4.4 13:57:57 10° SW 14:00:54 20° W 14:01:41 19° WNW
Cosmos 2322 Rocket 2.1 13:55:57 10° SSW 14:01:40 86° WNW 14:07:18 10° NNE
SL-27 R/B 4.3 14:01:58 10° NNE 14:04:22 21° E 14:06:48 10° SE
USA 307 2.8 14:04:20 22° WSW 14:05:14 31° SSW 14:07:19 10° SE
PAYLOAD A 4.0 14:01:58 10° NNE 14:06:44 79° ESE 14:11:31 10° S
Resurs 1-4 Rocket 4.1 14:07:27 11° W 14:08:32 11° W 14:10:07 10° WSW
Meteor 1-4 Rocket 2.7 14:05:35 10° SSW 14:08:41 41° W 14:10:05 25° NNW
Cosmos 2173 Rocket 3.9 14:03:08 10° SSW 14:09:18 75° W 14:15:24 10° N
Cosmos 2333 Rocket 2.6 14:03:50 10° SSW 14:09:32 68° ESE 14:15:12 10° NE
Cosmos 1833 4.5 14:07:06 15° NNW 14:11:54 69° ENE 14:17:40 10° SSE
Cosmos 1892 4.4 14:09:51 10° SW 14:12:08 16° W 14:12:47 15° W
Envisat 3.0 14:10:56 10° NNE 14:16:03 85° WNW 14:21:15 10° SSW
Geosat 3.9 14:11:19 10° NNE 14:16:20 73° WNW 14:21:26 10° SSW
Okean 2 Rocket 3.1 14:13:02 18° NNW 14:16:23 67° W 14:20:53 10° S
Cosmos 371 Rocket 4.3 14:15:44 17° WNW 14:18:59 35° WSW 14:23:31 10° S
Cosmos 2100 Rocket 4.1 14:14:04 10° SSW 14:20:10 59° W 14:26:14 10° N
Cosmos 1825 3.8 14:18:05 10° SW 14:20:26 17° W 14:21:22 15° WNW
Cosmos 1802 Rocket 4.0 14:14:09 10° S 14:20:37 82° W 14:26:56 10° N
Cosmos 921 Rocket 4.2 14:17:00 10° S 14:21:06 44° ESE 14:25:08 10° NE
Lacrosse 5 rocket 1.8 14:19:44 10° WSW 14:23:00 30° NW 14:26:20 10° NNE
SL-16 R/B 2.7 14:18:30 10° SW 14:23:45 38° WNW 14:28:57 10° N
Cosmos 923 Rocket 4.1 14:19:37 10° SSW 14:24:55 86° ESE 14:30:12 10° NNE
Cosmos 1898 Rocket 3.5 14:21:01 14° NNW 14:25:32 86° WSW 14:30:55 10° SSE
CZ-2C R/B 4.2 14:21:17 10° SSE 14:26:18 34° E 14:31:20 10° NNE
METEOR-M 4.3 14:21:05 10° N 14:26:21 55° W 14:31:41 10° SSW
ATLAS 3B R/B 3.7 14:22:10 10° WSW 14:26:31 20° WNW 14:29:50 13° NW
ATLAS CENTAUR R/B 2.7 14:23:09 10° WSW 14:26:35 22° WNW 14:28:57 14° NNW
YAOGAN 6 2.3 14:24:55 10° NNE 14:28:16 86° WNW 14:31:42 10° SSW
Cosmos 2061 Rocket 4.2 14:26:00 10° S 14:32:19 81° E 14:38:33 10° N
USA 306 4.3 14:29:58 10° WSW 14:32:59 26° SSW 14:36:14 10° SE
IRS-1D 3.9 14:29:43 10° N 14:34:47 47° W 14:39:59 10° SSW
Cosmos 1455 4.1 14:32:57 12° WNW 14:34:51 16° WSW 14:37:10 10° SSW
Cosmos 1484 Rocket 3.8 14:31:27 10° NE 14:35:02 46° ESE 14:38:36 10° S
Okean 1 Rocket 3.1 14:31:38 10° NNW 14:36:02 72° W 14:40:35 10° S
Cosmos 1937 Rocket 3.5 14:31:07 11° NNW 14:36:09 86° ENE 14:41:22 10° SSE
H-2A R/B 4.0 14:32:47 10° NE 14:37:26 33° ESE 14:42:14 10° S
Cosmos 1725 Rocket 4.1 14:32:10 10° SSW 14:38:34 74° W 14:44:53 10° N
Cosmos 1680 Rocket 3.6 14:36:31 10° SSW 14:41:55 89° ESE 14:47:16 10° NNE
Cosmos 1536 Rocket 4.3 14:38:55 10° SSW 14:43:07 38° W 14:47:16 10° NNW
Cosmos 1892 Rocket 4.2 14:38:45 10° S 14:43:10 59° E 14:47:32 10° NNE
Cosmos 1242 Rocket 2.2 14:41:24 10° SSW 14:44:43 74° W 14:47:59 10° N
Cosmos 2333 4.2 14:40:39 10° SSW 14:46:20 76° WNW 14:51:58 10° NNE
USA 32 4.2 14:42:14 10° N 14:47:30 81° E 14:52:50 10° S
SL-8 R/B 3.8 14:43:07 12° NW 14:47:39 72° NNE 14:52:29 10° ESE
COBE Rocket 4.4 14:45:04 10° NNW 14:49:21 36° W 14:53:43 10° SSW
Cosmos 2112 Rocket 4.1 14:47:37 10° SSW 14:53:01 87° WNW 14:58:24 10° NNE
ISS -2.2 14:51:08 10° W 14:54:16 33° SSW 14:57:27 10° SE
Cosmos 372 Rocket 4.1 14:52:50 10° NNW 14:57:55 61° WSW 15:03:02 10° SSE
Cosmos 2084 3.8 14:55:12 10° NNW 14:59:43 78° NE 15:04:30 10° SE
SL-16 R/B 2.8 14:55:32 10° SSE 15:01:48 74° ENE 15:07:59 10° N
Cosmos 1441 Rocket 4.4 15:00:46 10° NW 15:04:07 27° WSW 15:07:30 10° SSW
Cosmos 1346 Rocket 2.9 15:01:13 10° NNW 15:05:03 58° WSW 15:08:56 10° S
BREEZE-M DEB (TANK) 2.3 15:04:40 10° W 15:06:31 75° NNW 15:13:16 10° ENE
CZ-2C R/B 3.6 15:06:05 10° NNW 15:10:23 26° W 15:14:41 10° SW
H-2A R/B 3.0 15:07:00 10° NNE 15:10:29 68° ESE 15:14:01 10° S
SL-19 R/B 4.5 15:06:16 10° NNE 15:11:31 76° ESE 15:17:00 10° SSW
